Vorticity
-3 12 -1 5 1 4 11 8 8 13 11 10 6 9 9 11 10 6 4 5 6 7 5 4 4 4 4 3 3 4 7 8 7 8 9 8 6 3 3 2 3 3 3
11 11 6 7 10 11 15 14 13 13 15 22 -5 13 15 14 11 9 11 10 6 7 6 3 3 3 1 2 4 4 5 6 4 4 5 6 6 6 4 2 3 2 3
10 10 11 14 14 9 7 7 8 8 10 10 8 7 7 7 7 9 10 12 10 9 5 4 4 5 4 4 5 9 4 4 6 2 6 5 5 5 4 2 4 1 4
14 13 10 9 9 9 8 7 6 6 7 7 8 7 7 6 6 6 6 6 6 8 9 11 11 11 11 10 6 3 4 7 2 5 5 3 7 7 6 4 4 4 4
8 8 7 6 5 5 7 8 8 9 10 10 10 10 10 10 9 8 7 6 6 6 6 6 6 6 7 8 10 11 11 8 7 4 1 4 5 5 5 5 5 4 4
6 6 6 6 7 7 9 9 8 7 6 6 7 8 8 10 10 11 11 11 10 8 7 7 6 6 7 7 8 7 6 7 9 10 14 4 2 3 4 6 4 4 5
7 8 8 9 9 9 7 7 6 6 6 6 8 8 9 9 10 10 11 11 11 10 10 9 8 8 8 7 6 6 7 8 8 8 8 10 -0 7 4 6 2 2 3
7 8 8 8 7 8 7 7 7 7 6 6 7 8 9 10 11 11 12 12 12 11 10 10 11 11 9 8 8 8 8 8 8 9 9 8 9 10 2 9 6 10 6
6 5 5 5 5 5 5 5 5 5 6 7 6 6 10 8 8 9 8 10 10 11 11 10 10 11 11 11 10 10 8 9 9 8 9 8 9 10 9 -1 10 8 12
7 7 7 6 6 6 6 6 5 4 5 6 7 7 7 6 7 6 8 7 9 8 9 11 11 10 9 9 9 9 9 9 10 10 10 11 9 10 10 10 -0 -11 0
7 8 8 8 7 7 7 7 7 6 6 5 5 6 5 4 4 4 4 7 8 7 9 9 10 12 11 10 10 10 10 10 9 8 7 8 9 12 10 9 12 16 1
7 7 7 6 6 6 7 6 6 6 6 5 5 5 3 1 1 3 3 2 4 10 11 12 10 11 12 12 10 10 11 10 10 11 11 11 12 12 11 10 10 11 12
7 8 10 9 9 8 8 7 6 5 6 5 5 5 5 4 3 3 6 6 7 4 7 15 11 8 10 14 14 11 11 11 11 11 12 12 12 12 13 13 15 15 14
7 6 6 6 7 7 8 8 8 8 9 8 6 7 6 6 6 6 7 8 9 8 8 9 15 12 10 9 11 11 10 11 10 10 10 9 9 9 9 10 9 8 10
5 5 6 7 9 10 9 9 9 9 9 9 9 9 9 9 10 10 9 8 11 11 10 12 16 15 17 13 9 9 8 7 7 6 10 12 14 12 11 13 13 14 14
4 5 7 8 7 7 8 8 10 11 12 13 12 12 11 10 10 11 12 11 12 12 13 16 23 11 7 13 18 15 12 11 10 9 9 7 8 8 10 12 15 15 8
2 3 7 7 5 5 7 9 10 10 10 10 12 14 15 14 14 13 12 14 14 15 14 14 17 14 12 13 18 16 13 13 10 10 10 11 9 9 8 6 10 11 13
2 6 9 7 6 7 10 11 11 11 11 10 11 13 14 13 13 13 14 16 16 16 14 14 17 16 14 12 11 11 13 13 14 13 14 12 11 9 10 11 5 8 9
2 10 8 7 8 10 10 10 11 12 12 14 15 18 17 17 17 16 17 17 19 19 18 19 16 19 9 9 7 9 12 12 15 15 14 14 19 21 12 10 14 12 9
10 8 7 7 11 11 10 12 14 13 13 16 20 18 25 29 28 21 9 9 12 12 16 12 8 7 8 8 12 14 15 10 8 13 18 26 25 15 7 12 22 23 17
9 7 9 10 10 11 14 16 14 13 16 15 20 11 12 8 5 13 16 25 13 10 12 12 11 12 14 11 12 15 7 8 14 5 6 8 5 7 5 4 8 26 22
8 9 8 10 9 13 15 14 14 14 19 18 7 20 28 6 -21 22 10 9 8 9 9 11 10 10 11 11 10 12 12 11 9 3 10 15 18 17 13 12 9 15 18
7 8 7 9 11 12 14 12 15 13 23 16 4 9 8 -3 13 17 11 13 13 14 15 16 14 13 11 11 12 12 14 15 15 14 11 9 6 9 11 12 13 12 10
7 6 10 12 14 12 15 13 17 10 13 18 5 1 9 6 7 18 14 14 13 13 13 13 14 14 13 12 11 9 9 8 10 10 8 7 8 9 9 9 9 9 9
6 7 9 11 13 14 17 12 9 25 15 22 10 3 7 -0 30 14 10 10 9 9 7 8 8 7 7 7 8 7 7 8 9 9 8 7 7 6 5 6 6 6 6
7 6 10 9 14 16 17 4 13 8 15 19 12 14 8 17 12 9 8 7 6 7 8 8 9 10 10 10 9 8 7 6 6 7 7 6 6 6 7 6 7 9 8
Height
3134 3134 3136 3136 3136 3137 3137 3137 3137 3137 3138 3138 3139 3140 3140 3141 3142 3143 3145 3145 3146 3147 3148 3148 3149 3150 3151 3152 3153 3153 3154 3154 3154 3155 3155 3156 3156 3157 3157 3158 3158 3158 3158
3131 3132 3133 3133 3133 3134 3133 3133 3134 3134 3134 3136 3138 3137 3138 3137 3137 3138 3140 3141 3142 3142 3143 3144 3144 3146 3146 3147 3147 3148 3149 3150 3151 3151 3152 3152 3153 3153 3153 3153 3154 3155 3155
3128 3129 3130 3130 3131 3132 3132 3132 3132 3132 3134 3134 3134 3134 3134 3134 3134 3134 3135 3136 3137 3137 3138 3138 3139 3140 3140 3141 3142 3143 3144 3145 3146 3147 3147 3147 3148 3149 3149 3149 3149 3150 3151
3125 3125 3126 3127 3129 3130 3130 3130 3130 3130 3130 3131 3130 3130 3130 3130 3131 3131 3131 3131 3131 3132 3132 3133 3133 3134 3134 3135 3135 3137 3137 3138 3139 3141 3141 3142 3143 3144 3144 3144 3144 3144 3145
3123 3123 3124 3125 3126 3126 3127 3127 3127 3127 3128 3128 3128 3127 3126 3126 3126 3126 3126 3126 3126 3127 3127 3127 3127 3127 3128 3129 3130 3130 3130 3131 3133 3133 3134 3135 3136 3137 3138 3138 3138 3138 3139
3120 3121 3122 3122 3122 3123 3124 3124 3124 3124 3124 3124 3124 3123 3122 3122 3121 3121 3120 3120 3121 3120 3120 3120 3121 3122 3122 3123 3123 3123 3123 3124 3124 3126 3126 3128 3129 3130 3131 3131 3132 3132 3132
3118 3119 3119 3119 3119 3120 3120 3120 3120 3119 3119 3120 3120 3119 3117 3117 3117 3116 3115 3115 3114 3114 3113 3113 3114 3115 3115 3115 3115 3115 3116 3116 3117 3118 3119 3120 3121 3122 3124 3125 3125 3126 3126
3115 3116 3116 3117 3117 3117 3118 3118 3118 3117 3116 3115 3115 3115 3114 3114 3112 3110 3110 3110 3109 3108 3107 3107 3107 3108 3107 3107 3107 3108 3108 3108 3109 3110 3110 3111 3114 3115 3116 3117 3117 3118 3118
3111 3112 3112 3113 3113 3113 3113 3113 3112 3112 3111 3110 3111 3110 3109 3108 3107 3105 3104 3103 3102 3102 3101 3100 3100 3100 3100 3100 3100 3100 3099 3099 3100 3101 3102 3102 3104 3106 3108 3108 3109 3110 3111
3108 3108 3108 3109 3109 3109 3108 3108 3107 3107 3106 3105 3103 3103 3103 3101 3100 3101 3100 3097 3096 3095 3093 3093 3093 3092 3091 3091 3092 3092 3091 3092 3092 3092 3093 3093 3094 3096 3098 3099 3100 3101 3102
3105 3105 3105 3106 3105 3105 3105 3105 3104 3103 3102 3101 3100 3099 3097 3094 3093 3092 3093 3094 3092 3088 3087 3086 3085 3084 3083 3083 3084 3084 3083 3083 3083 3084 3084 3085 3085 3086 3087 3089 3090 3091 3094
3102 3102 3102 3102 3101 3101 3100 3099 3099 3098 3097 3095 3094 3092 3092 3091 3089 3085 3083 3084 3083 3084 3081 3080 3077 3076 3075 3075 3075 3075 3074 3074 3075 3074 3075 3075 3075 3076 3077 3078 3079 3080 3081
3097 3097 3097 3097 3097 3096 3095 3094 3093 3091 3091 3090 3088 3086 3084 3083 3081 3080 3078 3076 3076 3075 3074 3074 3071 3068 3067 3067 3067 3066 3065 3066 3066 3066 3066 3066 3066 3067 3068 3069 3069 3069 3069
3093 3093 3092 3092 3091 3090 3089 3088 3086 3085 3084 3082 3081 3079 3077 3075 3073 3071 3069 3067 3066 3066 3065 3063 3063 3061 3059 3059 3058 3058 3058 3058 3058 3058 3058 3057 3057 3058 3058 3058 3058 3058 3059
3088 3088 3087 3086 3085 3084 3082 3081 3079 3076 3075 3073 3072 3070 3068 3066 3064 3063 3061 3059 3056 3054 3055 3056 3055 3053 3051 3051 3050 3050 3050 3050 3050 3050 3050 3049 3049 3048 3048 3048 3049 3049 3049
3083 3082 3081 3081 3079 3077 3075 3073 3071 3068 3067 3064 3062 3061 3059 3057 3055 3053 3052 3050 3048 3046 3043 3045 3047 3044 3042 3042 3042 3043 3043 3043 3042 3042 3042 3041 3041 3041 3041 3041 3040 3039 3039
3077 3076 3075 3073 3072 3069 3067 3065 3062 3059 3057 3055 3052 3050 3048 3047 3045 3044 3042 3041 3040 3038 3035 3037 3039 3036 3035 3034 3034 3035 3036 3036 3035 3034 3034 3034 3034 3034 3034 3033 3032 3031 3030
3071 3071 3069 3066 3064 3062 3060 3057 3054 3051 3049 3047 3044 3041 3039 3037 3036 3034 3034 3033 3032 3031 3029 3030 3032 3030 3029 3029 3029 3029 3029 3029 3028 3027 3026 3027 3026 3027 3026 3025 3024 3023 3022
3066 3064 3062 3060 3058 3055 3053 3049 3047 3044 3041 3039 3036 3033 3031 3030 3029 3028 3027 3026 3025 3024 3023 3024 3026 3024 3024 3025 3025 3024 3023 3023 3022 3021 3020 3019 3019 3020 3020 3018 3016 3014 3012
3060 3058 3057 3054 3052 3048 3046 3043 3041 3037 3035 3032 3030 3029 3027 3025 3024 3024 3023 3022 3021 3020 3020 3020 3021 3021 3021 3020 3019 3018 3018 3017 3017 3016 3015 3014 3014 3014 3013 3012 3009 3007 3006
3055 3053 3051 3048 3046 3043 3040 3037 3034 3031 3029 3028 3026 3025 3024 3024 3023 3021 3020 3019 3018 3018 3017 3017 3017 3016 3016 3015 3014 3014 3014 3013 3012 3012 3011 3010 3009 3009 3008 3006 3004 3000 2999
3049 3047 3045 3043 3040 3038 3034 3030 3028 3027 3025 3024 3023 3022 3021 3021 3020 3018 3017 3016 3016 3015 3014 3014 3013 3012 3012 3011 3010 3010 3010 3009 3008 3008 3007 3006 3004 3002 3001 3000 2998 2996 2994
3043 3041 3040 3038 3035 3032 3028 3025 3024 3022 3020 3020 3020 3019 3019 3018 3017 3016 3015 3014 3013 3012 3012 3011 3010 3010 3009 3008 3007 3006 3006 3005 3004 3004 3003 3001 2999 2997 2996 2994 2993 2991 2989
3038 3037 3035 3033 3030 3026 3023 3021 3019 3018 3017 3017 3017 3017 3016 3016 3014 3013 3013 3012 3011 3010 3009 3009 3008 3008 3007 3006 3004 3004 3003 3002 3001 3000 2998 2997 2995 2993 2991 2989 2987 2985 2984
3034 3032 3030 3028 3024 3021 3018 3016 3015 3014 3014 3013 3013 3014 3014 3013 3011 3011 3011 3011 3010 3009 3009 3008 3007 3007 3006 3004 3003 3001 3000 2999 2997 2996 2994 2993 2991 2988 2986 2984 2982 2980 2978
3029 3028 3026 3023 3019 3016 3014 3013 3012 3011 3010 3010 3010 3010 3011 3010 3009 3009 3010 3010 3009 3009 3008 3007 3006 3005 3004 3002 3001 2999 2997 2996 2994 2993 2991 2989 2986 2983 2980 2978 2976 2974 2971